Погода в Октябрьском

Россия / Рязанская область     54°14′00″N   38°53′29″E
темп.,
°C
ветер,
м/с
пор.,
м/с
влажн.,
%
обл.,
%
осадки,
мм/ч
давл.,
гПа
погр.,
м
5 марта, пт
пт500:00−3ссв3697100 1.4 1001236
03:00−4сз4996100 1.8 1003399
06:00−7сз359696 0.1 100588
09:00−8сз369349 0.1 1008155
12:00−4зсз47900 0.0 1009499
15:00−3зсз468444 0.0 1011796
18:00−6з348814 0.0 101248
21:00−9з33897 0.0 101527
6 марта, сб
сб600:00−10з22880 0.0 101621
03:00−12з12890 0.0 101721
06:00−13з12890 0.0 101621
09:00−9с018833 0.0 101735
12:00−7ссз128697 0.0 1016283
15:00−5с249297 0.2 1016452
18:00−8сз2389100 0.1 101621
21:00−10з349072 0.1 101750
7 марта, вс
вс700:00−12з479036 0.0 101696
03:00−12юз5109118 0.0 1014154
06:00−11юз7148747 0.0 1011320
09:00−7юз9178174 0.0 1007631
12:00−5юз121992100 0.3 10021088
15:00−3юз121891100 1.3 9971237
18:00−4зсз101579100 1.8 9971086
21:00−9з6147867 1.8 1001347
8 марта, пн
пн800:00−9зюз716780 0.0 1000469
03:00−8юз8178033 0.0 998592
06:00−7зюз81786100 0.0 996732
09:00−8з81284100 0.5 9981024
12:00−7сз9138299 0.2 10011257
15:00−7зсз8137594 0.2 10041352
18:00−8зсз7138493 0.0 1006624
21:00−10з5109292 0.1 1009257
9 марта, вт
вт900:00−12зсз479575 0.1 1010118
03:00−15сз349662 0.1 101247
06:00−17сз339657 0.0 101342
09:00−15ссз479374 0.0 1015266
12:00−13ссз469095 0.0 1016467
15:00−12ссз578897 0.1 1017640
18:00−15сз4892100 0.0 1018172
21:00−18сз479354 0.0 1021121